NOAA NWS Hourly Roundups by Site

Regional Weather Roundup for Omaha, NE

To Select Another Site Choose from List

Select Site:  

000
ASUS43 KOAX 191510
RWRNE

WEATHER ROUNDUP FOR NEBRASKA
NATIONAL WEATHER SERVICE OMAHA NE
1000 AM CDT SUN AUG 19 2018

NOTES: SATELLITE DATA IS BEING USED TO AUGMENT CLOUD COVER ABOVE
       12000 FEET.
       "FAIR" INDICATES FEW OR NO CLOUDS BELOW 12,000 FEET WITH NO
       SIGNIFICANT WEATHER AND/OR OBSTRUCTIONS TO VISIBILITY.


NEZ001>004-019>022-054>056-191600-
NEBRASKA PANHANDLE

CITY           SKY/WX    TMP DP  RH WIND       PRES   REMARKS
SCOTTSBLUFF    CLOUDY    63  57  81 NW14G23   30.12R
ALLIANCE       CLOUDY    61  56  83 NW13      30.07S
CHADRON        LGT RAIN  60  59  96 NW12G21   30.08  FOG
GORDON         CLOUDY    62  59  91 NW13G22   30.03R FOG
KIMBALL        PTSUNNY   63  52  67 NW21G26   30.16S
SIDNEY         MOSUNNY   64  55  72 NW22G29   30.12S
$$

NEZ057>060-069>072-079>082-191600-
SOUTHWEST NEBRASKA

CITY           SKY/WX    TMP DP  RH WIND       PRES   REMARKS
NORTH PLATTE   PTSUNNY   68  60  75 N7        30.00S
IMPERIAL       SUNNY     65  58  78 N18G25    30.04S
LEXINGTON      CLOUDY    66  64  92 CALM      29.96F
MCCOOK         SUNNY     69  62  78 NW16      29.99S
OGALLALA       PTSUNNY   66  60  79 NW12      30.04S
$$

NEZ005>010-023>029-035>040-094-191600-
NORTH CENTRAL NEBRASKA

CITY           SKY/WX    TMP DP  RH WIND       PRES   REMARKS
VALENTINE      PTSUNNY   67  60  78 NW9       29.95R
AINSWORTH      CLOUDY    63  61  93 CALM      29.96F
BROKEN BOW     LGT RAIN  66  64  93 CALM      29.95F
O`NEILL        LGT RAIN  66  64  96 W9        29.93F
ORD            LGT RAIN  65  65 100 S3        29.94F FOG
THEDFORD       PTSUNNY   65  58  79 NW10      29.98F
$$

NEZ041-046>049-061>064-073>077-083>087-191600-
SOUTH CENTRAL NEBRASKA

CITY           SKY/WX    TMP DP  RH WIND       PRES   REMARKS
GRAND ISLAND   RAIN      65  64  97 NW7       29.94F FOG
AURORA         RAIN      64  64 100 NW8       29.93S
HASTINGS       HVY RAIN  65  64  97 N5        29.96S FOG
HEBRON         HVY RAIN  67  66  97 CALM      29.93S
HOLDREGE       RAIN      64  64 100 NE3       29.96F
KEARNEY        CLOUDY    65  64  97 N12       29.96F FOG
YORK           RAIN      66  66 100 NW6       29.93S
$$

NEZ011>018-030>034-042>045-191600-
NORTHEAST NEBRASKA

CITY           SKY/WX    TMP DP  RH WIND       PRES   REMARKS
NORFOLK        LGT RAIN  69  65  86 W9        29.89S
ALBION         LGT RAIN  67  66  94 NW3       29.92S
BLAIR          CLOUDY    73  67  82 S8        29.90S
COLUMBUS       CLOUDY    68  66  93 SW7       29.93R FOG
FREMONT        CLOUDY    74  68  81 SW3       29.90R
TEKAMAH        CLOUDY    72  67  84 SE5       29.89S
WAYNE          CLOUDY    74  73  96 W9        29.89S
$$

NEZ050>053-065>068-078-088>093-191600-
SOUTHEAST NEBRASKA

CITY           SKY/WX    TMP DP  RH WIND       PRES   REMARKS
LINCOLN        LGT RAIN  72  67  84 NW6       29.91S
OMAHA EPPLEY   RAIN      72  68  87 S8        29.89S FOG
BEATRICE       CLOUDY    71  69  95 W8        29.91S
FALLS CITY     CLOUDY    74  70  87 SE5       29.89F
NEBRASKA CITY  PTSUNNY   73  73  97 S6        29.89F
PLATTSMOUTH    CLOUDY    72  68  89 S8        29.90S
$$

NEZ044-045-051>053-067-191600-
OMAHA AREA

CITY           SKY/WX    TMP DP  RH WIND       PRES   REMARKS
OMAHA EPPLEY   RAIN      72  68  87 S8        29.89S FOG
BLAIR          CLOUDY    73  67  82 S8        29.90S
FREMONT        CLOUDY    74  68  81 SW3       29.90R
MILLARD        CLOUDY    73  69  86 SE6       29.89F
OFFUTT AFB     LGT RAIN  72  68  88 S5        29.89S
PLATTSMOUTH    CLOUDY    72  68  89 S8        29.90S
WAHOO          PTSUNNY   71  70  95 CALM      29.89F
$$


 

View Past Reports for Omaha, NE.

Products Courtesy of NOAA-NWS
NWS Information Parsing Script by Ken True at Saratoga Weather - Script by SE Lincoln Weather.